Regional Weather Roundup
Issued by NWS

Home | Current Version | Previous Version | Graphics & Text | Print | Product List | Glossary Off
Versions: 1 2 3 4 5 6 7 8 9 10 11 12 13 14 15 16 17 18 19 20 21 22 23 24 25 26 27

000
ASUS43 KDMX 171307
RWRIA

WEATHER ROUNDUP FOR IOWA
NATIONAL WEATHER SERVICE DES MOINES IA
800 AM CDT THU APR 17 2014

NOTE: "FAIR" INDICATES FEW OR NO CLOUDS BELOW 12,000 FEET WITH NO
SIGNIFICANT WEATHER AND/OR OBSTRUCTIONS TO VISIBILITY.

* - THESE STATIONS ARE NOT NWS STATIONS...THUS NOT UNDER NWS
QUALITY CONTROL.  THEY ALSO DO NOT REPORT WEATHER SUCH
AS PRECIPITATION OR FOG.

IAZ001>003-012>014-020>022-031>034-043>046-171400-
   NORTHWEST IOWA

CITY           SKY/WX    TMP DP  RH WIND       PRES   REMARKS
CARROLL *      CLOUDY    32  27  80 NW17      30.25R WCI  21
CHEROKEE *     SUNNY     29  25  84 NW9       30.28R WCI  20
DENISON *      CLOUDY    30  25  80 NW12      30.27R WCI  21
LE MARS *      MOSUNNY   30  25  80 NW6       30.30R WCI  24
ORANGE CITY *  SUNNY     27  21  80 NW12      30.27R WCI  16
SHELDON *      SUNNY     25  21  86 NW14      30.25R WCI  13
SIOUX CITY     CLOUDY    31  24  75 NW10      30.30R WCI  22
SPENCER        SUNNY     27  21  78 NW15      30.23R WCI  15
STORM LAKE *   MOSUNNY   28  25  86 NW14G20   30.25R WCI  17
$$

IAZ055>058-069>071-079>083-090>094-171400-
   SOUTHWEST IOWA

CITY           SKY/WX    TMP DP  RH WIND       PRES   REMARKS
ATLANTIC *     CLOUDY    32  27  80 N16       30.27R WCI  21
AUDUBON *      PTSUNNY   32  25  74 NW9       30.26R WCI  24
CLARINDA *     CLOUDY    34  28  80 N13       30.29R WCI  25
COUNCIL BLFS * CLOUDY    32  27  80 N14       30.27R WCI  22
CRESTON *      CLOUDY    32  27  80 NW16      30.24R WCI  21
HARLAN  *      CLOUDY    32  27  80 N17       30.30R WCI  21
LAMONI         CLOUDY    33  27  78 N14G22    30.23R WCI  23
RED OAK *      CLOUDY    34  27  75 N12       30.28R WCI  25
SHENANDOAH *   CLOUDY    34  27  75 N13G21    30.29R WCI  25
$$

IAZ047>049-059>061-072>074-084-171400-
   CENTRAL IOWA

CITY           SKY/WX    TMP DP  RH WIND       PRES   REMARKS
AMES           CLOUDY    32  27  81 NW13      30.23R WCI  22
ANKENY *       CLOUDY    34  28  80 NW15G21   30.24R WCI  24
CHARITON *     CLOUDY    34  30  86 NW13G25   30.22R WCI  25
DES MOINES     CLOUDY    36  27  69 NW16      30.24R WCI  26
GRINNELL*      CLOUDY    34  30  86 W14       30.21R WCI  25
KNOXVILLE *    CLOUDY    36  28  75 NW15      30.22R WCI  26
MARSHALLTOWN   CLOUDY    32  29  88 W17       30.20R WCI  21
NEWTON *       CLOUDY    34  30  86 NW14      30.22R WCI  24
PELLA *        CLOUDY    35  30  82 NW12G18   30.23R WCI  27
PERRY *        CLOUDY    34  27  76 NW17      30.24R WCI  23
$$

IAZ004>006-015-016-023>025-035-036-171400-
   NORTH CENTRAL IOWA

CITY           SKY/WX    TMP DP  RH WIND       PRES   REMARKS
ALGONA *       CLOUDY    28  25  86 N12       30.23R WCI  18
CLARION *      CLOUDY    30  27  86 NW12G20   30.22R WCI  21
ESTHERVILLE    SUNNY     24  22  91 NW22      30.20R WCI   9
FORT DODGE *   CLOUDY    30  25  80 NW9G16    30.25R WCI  22
MASON CITY     CLOUDY    31  28  89 NW15      30.18R WCI  20
FOREST CITY *  CLOUDY    32  30  93 NW12G17   30.18R WCI  23
IOWA FALLS *   CLOUDY    32  28  87 W17       30.21R WCI  21
$$

IAZ007>011-017>019-026>030-037>042-050>054-066-171400-
   NORTHEAST IOWA

CITY           SKY/WX    TMP DP  RH WIND       PRES   REMARKS
CEDAR RAPIDS   CLOUDY    36  29  75 W17       30.16R WCI  26
CHARLES CITY * CLOUDY    32  30  93 NW15      30.16R WCI  22
CLINTON *      PTSUNNY   39  32  75 W16       30.17R WCI  30
DECORAH *      CLOUDY    34  34 100 W9G16     30.09R FOG     WCI  26
DUBUQUE        CLOUDY    35  31  85 W21G29    30.10R WCI  24
MONTICELLO *   CLOUDY    37  32  81 W17       30.14R WCI  28
OELWEIN *      CLOUDY   N/A N/A N/A W17       30.15R
WATERLOO       CLOUDY    33  29  85 W10G21    30.17R WCI  25
$$

IAZ064-065-067-068-078-171400-
   EAST CENTRAL IOWA

CITY           SKY/WX    TMP DP  RH WIND       PRES   REMARKS
DAVENPORT      CLOUDY    39  33  79 W14       30.16R WCI  31
IOWA CITY      CLOUDY    37  32  82 NW15      30.19R WCI  28
MT. PLEASANT * CLOUDY    39  32  75 W8        30.19R WCI  34
MUSCATINE *    CLOUDY    41  34  75 W14       30.19R
QUAD CITIES    CLOUDY    41  33  73 W16       30.16R
$$

IAZ062-063-075>077-085>089-095>099-171400-
   SOUTHEAST IOWA

CITY           SKY/WX    TMP DP  RH WIND       PRES   REMARKS
BURLINGTON     CLOUDY    41  35  79 NW7G17    30.18R
FAIRFIELD *    CLOUDY    37  32  81 NW15      30.20R WCI  28
FORT MADISON * CLOUDY    41  36  81 W9        30.20R
KEOKUK *       CLOUDY    43  36  75 NW10      30.19R
OSKALOOSA *    CLOUDY    36  32  85 NW14      30.21R WCI  27
CENTERVILLE *  CLOUDY    36  32  87 NW15      30.23R WCI  26
OTTUMWA        CLOUDY    36  31  82 NW15      30.18F WCI  27
WASHINGTON *   CLOUDY    37  32  81 W17       30.19R WCI  28
$$

ABBREVIATIONS USED IN REMARKS
   TC - TEMPERATURES IN CELSIUS
  WCI - WIND CHILL INDEX
   HX - HEAT INDEX
  VSB - VISIBILITY
$$




USA.gov is the U.S. government's official web portal to all federal, state and local government web resources and services.